Location: Newark
(44.2886°N, 4.8431°E)
Time: 14:39:34
(UTC+00:00)

ZACube-1 - Pass Details

Date: 27 November 2020
Orbit: 584 x 665 km, 97.6° (Epoch: 14 January)

Event Time Altitude Azimuth Distance (km) Brightness Sun altitude
Rises 05:55:26 0° 0° (N) 2,822 ? -10.0°
Reaches altitude 10° 05:57:52 10° 347° (NNW) 1,919 ? -9.6°
Maximum altitude 06:01:16 25° 292° (WNW) 1,208 ? -9.0°
Drops below altitude 10° 06:04:40 10° 237° (WSW) 1,926 ? -8.5°
Sets 06:07:07 0° 224° (SW) 2,834 ? -8.1°
